Wind_Speed
12 12 11 11 10 10 10 10 9 9 9 9 9 9 9 9 10 10 10 10 11 11 11 11 11 11 11 11 11 11 11 11 11 10 10 10 10 10 10 10 9 9 9 9
12 12 11 11 11 11 11 11 10 10 10 10 10 10 10 10 11 10 10 10 10 11 12 12 12 12 12 12 12 12 12 12 12 11 11 11 11 11 11 11 11 10 10 10
12 11 13 13 12 12 12 12 11 11 11 12 12 11 11 11 12 11 10 10 10 11 11 12 12 13 13 14 13 13 13 13 13 13 12 12 11 12 12 12 11 11 11 11
13 13 13 13 14 14 13 12 13 13 13 13 13 13 11 12 12 11 11 12 12 13 13 13 13 13 14 14 14 14 14 14 14 13 13 13 13 13 13 13 12 12 12 12
14 14 14 14 14 14 14 14 14 14 14 14 14 15 13 13 12 12 13 13 13 14 14 14 14 14 14 15 15 15 15 15 15 15 15 15 15 15 15 14 14 13 13 13
14 15 15 15 15 15 15 15 16 16 17 17 15 16 13 13 13 14 14 14 14 15 15 16 15 15 16 16 15 15 16 16 17 17 17 16 16 16 16 15 15 14 14 14
15 16 16 16 17 17 17 17 17 18 18 18 17 18 15 14 14 15 16 15 16 16 16 16 16 16 16 17 17 17 18 18 18 18 17 17 17 17 17 16 15 15 15 15
16 16 16 17 17 18 18 18 18 19 20 20 19 20 17 17 16 16 17 16 17 17 17 17 18 18 17 18 18 19 19 19 19 19 18 18 18 18 18 18 18 17 16 16
17 17 16 17 17 18 18 18 19 21 22 23 22 21 20 19 18 17 17 17 17 17 18 18 18 18 18 19 19 20 20 21 21 22 21 20 20 20 20 19 19 20 18 17
18 18 18 17 18 19 19 19 20 22 23 24 24 23 21 20 19 19 19 18 18 18 18 18 19 19 19 20 21 21 22 23 23 23 23 22 22 22 22 21 21 20 20 18
20 21 20 20 19 19 20 21 22 23 24 25 25 24 21 20 20 20 19 19 19 19 20 20 20 21 21 21 22 22 23 23 23 23 24 23 23 23 23 22 22 22 22 20
21 22 22 22 20 20 21 21 22 23 24 25 26 25 22 23 22 21 21 21 21 21 21 22 22 22 22 22 22 23 23 23 23 23 24 24 24 25 25 24 24 24 23 22
22 23 24 23 22 22 22 22 23 24 25 27 27 26 24 24 24 24 23 22 23 24 23 23 23 23 23 23 23 23 23 24 24 24 24 25 25 25 25 25 26 25 24 24
24 24 24 24 23 23 23 23 24 25 26 27 27 26 25 25 25 25 25 24 23 23 24 24 24 24 24 24 24 24 24 24 25 25 25 25 25 25 25 25 26 26 26 25
24 24 24 24 24 24 24 24 25 25 26 27 27 27 26 26 26 26 26 26 25 24 24 24 24 25 25 25 25 25 24 24 25 25 25 26 26 26 26 26 26 26 26 26
23 24 23 23 23 24 24 24 25 25 26 27 27 26 26 26 26 27 27 27 26 25 24 24 25 26 26 26 26 26 26 25 26 26 26 26 27 27 27 27 27 27 27 26
22 22 23 23 23 24 24 23 25 26 26 26 26 25 25 26 26 26 27 27 28 27 26 25 26 26 26 26 25 25 26 26 27 27 27 27 28 28 28 29 28 29 28 28
22 23 23 24 25 26 24 24 24 25 25 26 25 25 25 25 26 26 27 28 28 28 28 28 28 27 26 26 26 26 26 26 26 27 27 27 27 28 28 29 29 29 29 28
21 22 24 25 25 26 25 24 24 25 26 26 26 25 25 25 25 25 25 26 27 27 28 29 29 29 27 26 27 27 27 27 27 28 28 28 28 28 29 30 30 30 30 30
21 22 24 25 26 25 24 25 25 26 27 26 26 25 26 26 26 26 26 27 27 27 27 28 29 29 29 28 29 29 29 29 30 30 30 30 30 30 30 31 31 32 31 31
21 21 22 24 25 25 24 24 24 26 25 25 26 26 26 27 27 26 26 27 27 27 28 29 30 30 31 31 31 32 31 31 31 32 32 31 31 31 31 31 31 33 32 32
22 23 23 24 24 23 23 24 24 25 25 25 26 26 27 27 28 27 27 28 28 28 28 29 30 31 31 32 32 32 33 33 33 33 33 32 32 32 32 32 32 33 34 33
22 23 23 24 23 22 22 23 23 24 25 25 25 26 27 27 27 27 27 27 27 28 29 29 30 31 31 32 32 32 33 34 35 35 34 34 34 34 33 33 33 33 34 34
22 23 23 23 23 23 23 23 24 24 25 25 25 25 26 26 26 25 26 26 27 27 29 30 30 31 32 33 33 33 33 33 34 35 35 34 35 34 34 34 34 34 34 34
23 23 23 24 24 25 25 25 26 26 26 25 25 25 25 25 26 26 27 27 28 29 29 30 30 31 31 32 33 34 34 34 34 34 34 34 35 35 35 35 34 34 34 35
23 23 23 23 24 25 24 24 25 27 27 26 26 26 27 27 27 27 27 28 28 28 28 29 31 32 33 33 33 34 35 35 34 34 34 34 34 34 34 34 34 34 34 35
Wind_Direction
238 242 245 248 252 254 257 260 262 266 267 267 267 267 266 267 264 262 263 266 262 262 264 265 266 265 263 265 263 260 260 259 260 259 262 265 265 262 266 271 274 273 275 280
243 245 248 248 249 254 259 261 264 266 271 270 269 270 269 267 266 264 260 259 262 265 265 265 265 265 263 264 262 258 257 258 256 257 260 263 264 264 267 270 271 274 274 275
245 246 249 250 253 257 259 262 264 269 270 271 270 269 267 267 266 265 263 262 265 268 268 268 269 265 261 262 259 257 256 257 258 259 262 261 263 265 266 268 269 271 273 277
246 247 249 251 255 259 262 265 267 270 273 274 272 270 267 271 267 265 265 265 266 268 267 268 269 266 262 258 256 256 255 255 256 257 258 261 262 262 261 261 263 265 270 275
248 249 252 254 258 261 261 263 264 266 269 270 270 271 269 270 269 267 267 266 264 264 266 268 268 266 262 260 257 256 254 253 255 258 259 260 261 262 260 258 259 264 268 272
249 251 255 257 259 260 260 261 264 266 267 269 269 272 272 273 271 268 269 269 267 265 265 265 265 264 261 258 258 258 255 254 256 259 260 261 260 260 259 261 261 263 266 270
251 255 256 258 258 259 259 261 264 266 268 271 272 272 274 273 272 268 268 268 269 267 266 264 263 262 259 257 258 258 257 256 256 256 258 260 258 259 259 260 262 264 266 269
256 256 257 260 261 262 263 262 263 266 269 271 272 273 276 275 274 271 270 269 269 266 264 265 264 262 258 257 256 256 257 257 256 255 256 258 258 260 260 260 262 265 265 266
262 262 261 261 261 262 262 261 264 266 268 269 270 272 274 274 273 271 270 269 268 266 263 262 261 260 259 258 257 256 258 259 256 255 255 256 259 260 261 261 261 263 264 264
262 264 264 263 260 260 261 261 264 265 268 269 270 271 272 274 271 270 269 267 267 268 267 265 263 262 262 263 260 258 259 258 256 254 255 256 257 258 259 260 259 261 263 267
263 264 264 263 261 261 262 262 264 267 268 269 270 270 274 274 272 271 269 267 266 266 266 266 264 262 262 262 263 262 260 260 259 257 256 257 257 257 258 259 259 260 263 266
265 266 264 264 264 262 262 261 263 266 268 268 269 270 270 271 270 268 266 263 262 262 262 262 262 261 259 259 261 260 261 261 260 259 258 257 257 256 256 257 258 260 263 264
265 266 265 264 263 263 262 263 265 266 267 267 269 270 269 270 270 269 267 264 261 262 262 261 261 261 260 260 259 258 260 261 261 259 258 258 258 257 257 258 258 259 261 262
265 265 266 267 267 266 264 264 265 266 267 268 268 270 268 269 271 271 270 268 264 263 262 262 261 262 262 260 259 260 260 261 261 260 260 259 258 256 257 259 260 259 259 261
264 264 264 265 266 268 266 266 266 267 269 269 268 268 267 267 268 269 269 270 268 266 265 264 262 262 262 261 260 261 261 262 261 260 259 260 259 258 258 260 261 260 260 261
265 265 264 265 265 266 268 267 267 268 270 271 269 268 269 269 268 268 267 266 266 265 264 265 264 263 262 261 260 260 261 260 260 260 260 260 261 261 260 260 261 260 260 262
267 268 267 267 266 266 266 268 267 268 271 272 271 271 269 269 269 268 267 267 267 266 264 264 263 261 261 260 260 260 260 260 261 262 261 262 263 263 262 262 262 261 260 262
267 269 269 270 269 267 270 269 269 269 270 271 270 271 271 270 271 270 269 269 266 264 264 264 263 264 262 259 259 258 258 259 260 262 263 262 263 264 263 262 262 262 261 261
271 270 270 271 272 272 271 272 272 270 269 271 271 271 270 268 269 268 269 270 269 266 266 266 266 265 264 262 260 260 260 260 261 261 262 263 264 265 264 263 263 261 261 262
276 274 271 271 272 276 275 271 271 272 271 271 272 271 270 270 270 269 268 270 270 269 267 267 267 267 267 267 264 262 262 263 263 263 263 264 265 265 266 266 265 263 263 263
274 274 272 273 275 275 275 273 272 271 272 272 272 270 269 270 270 271 270 271 271 271 269 268 268 269 269 269 267 264 263 264 264 265 265 265 265 265 266 266 265 264 262 262
273 274 274 276 278 277 274 273 273 273 272 273 273 271 271 271 270 269 270 270 271 272 272 271 269 269 270 269 268 266 264 264 263 264 265 266 266 265 266 265 265 263 261 261
275 275 275 276 276 276 275 276 276 275 275 276 275 272 273 274 271 268 268 269 270 272 271 270 270 270 269 268 267 268 266 264 263 263 264 265 266 267 267 266 265 264 263 262
277 277 276 276 275 275 274 275 277 279 278 279 278 275 274 275 274 273 271 271 273 273 273 272 272 271 270 269 269 268 266 264 264 263 263 265 266 266 266 265 264 264 263 262
278 277 278 277 278 276 275 275 276 277 278 279 279 276 275 276 275 274 273 273 274 274 274 273 272 272 272 270 269 269 267 265 264 264 263 264 265 266 266 266 265 264 264 264
276 276 276 276 277 277 277 278 279 279 279 281 281 279 277 276 275 275 276 276 275 274 273 273 273 273 272 271 270 269 268 266 266 264 264 264 265 266 267 267 266 265 265 265
Height
5842 5844 5844 5844 5845 5846 5846 5846 5846 5846 5846 5846 5846 5846 5846 5846 5846 5846 5846 5846 5846 5846 5846 5846 5846 5847 5847 5848 5848 5848 5849 5849 5850 5850 5850 5851 5851 5851 5851 5851 5851 5851 5850 5850
5840 5841 5841 5841 5842 5842 5843 5843 5844 5844 5843 5843 5843 5844 5843 5843 5843 5843 5843 5843 5843 5843 5843 5843 5843 5844 5844 5844 5845 5845 5846 5846 5847 5847 5847 5848 5848 5848 5848 5848 5848 5848 5848 5847
5837 5838 5838 5839 5839 5840 5840 5841 5841 5841 5841 5840 5840 5841 5841 5840 5839 5840 5840 5840 5840 5840 5840 5840 5840 5840 5841 5841 5841 5842 5842 5843 5843 5844 5844 5845 5845 5845 5845 5845 5845 5845 5845 5844
5833 5834 5835 5835 5836 5836 5837 5837 5837 5837 5837 5837 5837 5837 5837 5836 5836 5836 5836 5836 5836 5836 5836 5836 5836 5836 5837 5837 5837 5838 5839 5839 5840 5840 5841 5841 5841 5842 5842 5842 5842 5842 5842 5841
5830 5831 5831 5832 5833 5833 5833 5833 5833 5833 5833 5833 5833 5832 5833 5832 5832 5832 5832 5832 5832 5832 5832 5832 5832 5832 5832 5833 5833 5834 5834 5835 5836 5837 5837 5837 5838 5838 5838 5838 5838 5838 5838 5838
5827 5827 5827 5828 5829 5829 5829 5829 5829 5828 5828 5829 5828 5828 5829 5828 5828 5827 5827 5827 5827 5827 5827 5827 5827 5828 5828 5829 5829 5830 5830 5831 5832 5832 5833 5833 5834 5834 5834 5834 5834 5835 5834 5834
5822 5823 5823 5824 5824 5824 5825 5825 5824 5824 5823 5823 5823 5823 5825 5824 5823 5823 5822 5822 5822 5822 5822 5822 5822 5823 5823 5824 5824 5825 5826 5826 5827 5828 5828 5829 5829 5829 5830 5830 5830 5830 5830 5830
5817 5819 5819 5819 5819 5819 5819 5820 5820 5819 5818 5818 5818 5817 5820 5819 5818 5817 5817 5817 5817 5817 5817 5817 5817 5817 5818 5819 5819 5820 5820 5821 5822 5823 5823 5824 5824 5824 5824 5825 5826 5826 5826 5826
5812 5814 5814 5814 5814 5814 5814 5814 5814 5814 5812 5812 5812 5812 5813 5812 5812 5811 5811 5811 5811 5811 5811 5811 5811 5812 5813 5813 5814 5814 5815 5816 5816 5817 5818 5818 5819 5819 5819 5820 5820 5820 5820 5820
5806 5807 5808 5808 5808 5808 5808 5808 5808 5807 5806 5805 5805 5805 5806 5806 5806 5805 5805 5805 5805 5805 5805 5805 5805 5806 5806 5807 5808 5808 5809 5809 5810 5811 5811 5812 5812 5813 5813 5814 5814 5814 5814 5815
5800 5801 5802 5802 5802 5802 5802 5802 5801 5801 5800 5799 5798 5802 5801 5800 5799 5799 5799 5798 5798 5799 5799 5799 5799 5799 5800 5800 5801 5801 5802 5803 5803 5804 5804 5805 5806 5806 5807 5807 5808 5808 5808 5809
5794 5794 5794 5796 5796 5795 5795 5794 5794 5794 5793 5792 5792 5796 5795 5793 5793 5792 5792 5791 5791 5791 5792 5792 5792 5792 5793 5793 5794 5795 5795 5796 5797 5797 5798 5798 5799 5799 5800 5801 5801 5802 5802 5802
5787 5787 5787 5788 5790 5789 5788 5788 5787 5787 5786 5785 5785 5789 5788 5787 5786 5785 5785 5785 5785 5785 5785 5785 5785 5786 5786 5787 5787 5788 5789 5789 5789 5790 5790 5791 5791 5792 5793 5793 5794 5795 5795 5795
5780 5780 5781 5781 5781 5781 5781 5781 5780 5780 5779 5778 5778 5779 5780 5779 5778 5778 5778 5778 5778 5778 5778 5778 5778 5778 5779 5780 5780 5781 5781 5782 5782 5783 5783 5784 5784 5785 5786 5786 5786 5787 5788 5789
5773 5773 5772 5773 5773 5773 5773 5773 5773 5772 5771 5771 5771 5771 5772 5771 5770 5770 5771 5771 5770 5771 5771 5771 5771 5771 5772 5772 5773 5773 5774 5775 5775 5776 5776 5777 5777 5777 5778 5779 5779 5779 5780 5781
5765 5765 5765 5766 5765 5765 5765 5765 5765 5764 5763 5763 5763 5764 5764 5763 5763 5763 5763 5763 5763 5763 5763 5763 5764 5764 5764 5765 5765 5766 5766 5767 5767 5768 5769 5769 5769 5770 5770 5771 5771 5771 5772 5773
5758 5758 5758 5758 5758 5757 5758 5759 5758 5757 5756 5756 5755 5756 5755 5755 5755 5755 5755 5755 5755 5755 5756 5756 5756 5756 5756 5757 5757 5758 5759 5759 5759 5760 5760 5761 5761 5761 5762 5762 5762 5763 5763 5764
5752 5751 5751 5751 5751 5750 5754 5751 5750 5750 5749 5748 5748 5748 5748 5748 5748 5747 5747 5747 5747 5747 5747 5747 5748 5748 5748 5749 5749 5750 5750 5751 5752 5752 5752 5752 5753 5753 5753 5753 5754 5754 5754 5755
5745 5745 5744 5743 5743 5743 5745 5744 5743 5742 5741 5741 5741 5741 5740 5740 5739 5739 5739 5738 5738 5739 5739 5739 5739 5739 5739 5740 5740 5741 5742 5742 5743 5743 5743 5743 5744 5744 5744 5744 5745 5745 5746 5746
5738 5737 5737 5736 5735 5735 5738 5736 5735 5735 5734 5734 5733 5733 5732 5732 5731 5732 5731 5730 5729 5730 5730 5730 5730 5730 5730 5731 5731 5732 5733 5733 5734 5734 5734 5735 5735 5735 5735 5735 5735 5736 5736 5737
5732 5730 5730 5729 5728 5728 5729 5728 5728 5728 5728 5727 5726 5725 5724 5724 5724 5723 5722 5722 5721 5721 5721 5721 5721 5721 5722 5722 5722 5723 5724 5724 5725 5725 5725 5725 5726 5726 5726 5726 5726 5726 5726 5727
5725 5723 5723 5722 5721 5723 5721 5720 5720 5720 5719 5718 5718 5717 5717 5716 5715 5714 5714 5713 5713 5712 5712 5712 5712 5712 5712 5712 5712 5712 5713 5714 5714 5715 5715 5716 5716 5716 5716 5716 5716 5716 5717 5717
5717 5717 5715 5715 5716 5714 5713 5712 5712 5711 5711 5711 5710 5709 5708 5707 5707 5706 5705 5705 5704 5704 5704 5703 5703 5702 5702 5702 5701 5702 5703 5703 5703 5704 5704 5705 5705 5705 5706 5706 5706 5706 5707 5707
5710 5709 5709 5708 5707 5707 5706 5705 5705 5704 5703 5703 5701 5701 5700 5699 5698 5698 5697 5696 5695 5695 5694 5694 5693 5693 5692 5692 5691 5691 5692 5692 5692 5693 5694 5694 5695 5695 5695 5695 5695 5696 5696 5697
5703 5702 5701 5700 5699 5699 5699 5698 5697 5697 5696 5695 5693 5692 5691 5691 5690 5689 5689 5688 5687 5686 5685 5684 5683 5683 5682 5682 5681 5681 5681 5681 5682 5682 5683 5683 5684 5684 5685 5685 5685 5686 5686 5687
5695 5695 5694 5693 5692 5691 5691 5690 5689 5688 5687 5686 5685 5684 5683 5682 5681 5680 5679 5678 5678 5677 5676 5675 5674 5673 5672 5671 5670 5670 5670 5670 5671 5671 5672 5673 5673 5674 5674 5674 5675 5675 5676 5676